FW1809 Weather Reports


time (UTC)temp
C
wind
direction
speed
KPH
gust
KPH
rain 1hr
cm
rain 24hr
cm
rain mn
cm
humidity
%
barometer
mb
20260504211501 18 155 12.9 30.6 0.00 0.00 0.00 47 1009.6
20260504210101 18 129 8.0 25.7 0.00 0.00 0.00 47 1009.4
20260504204613 18 200 9.7 24.1 0.00 0.00 0.00 46 1009.4
20260504203100 18 199 6.4 30.6 0.00 0.00 0.00 46 1009.5
20260504201556 18 116 8.0 22.5 0.00 0.00 0.00 44 1009.5
20260504200101 19 159 8.0 25.7 0.00 0.00 0.00 43 1009.6
20260504194603 19 215 16.1 27.4 0.00 0.00 0.00 41 1009.5
20260504193056 20 190 12.9 35.4 0.00 0.00 0.00 40 1009.5
20260504191608 20 135 6.4 24.1 0.00 0.00 0.00 41 1009.4
20260504190051 20 50 8.0 24.1 0.00 0.00 0.00 37 1009.6
20260504184549 20 199 12.9 24.1 0.00 0.00 0.00 37 1009.6
20260504183046 20 219 14.5 27.4 0.00 0.00 0.00 36 1009.7
20260504181548 20 166 6.4 22.5 0.00 0.00 0.00 37 1009.9
20260504180043 20 200 12.9 25.7 0.00 0.00 0.00 38 1010.1
20260504174541 20 159 8.0 25.7 0.00 0.00 0.00 38 1010.3
20260504173039 19 171 12.9 29.0 0.00 0.00 0.00 37 1010.4
20260504171546 19 184 9.7 24.1 0.00 0.00 0.00 39 1010.5
20260504090125 3 226 1.6 6.4 0.00 0.00 0.00 78 1012.2
20260504081508 3 205 1.6 4.8 0.00 0.00 0.00 80 1011.8
20260504044542 3 231 0.0 0.0 0.00 0.00 0.00 68 1011.9
20260504043047 3 231 0.0 0.0 0.00 0.00 0.00 67 1012.1
20260504041539 3 231 0.0 0.0 0.00 0.00 0.00 67 1012.0
20260504040036 3 231 0.0 0.0 0.00 0.00 0.00 67 1011.8
20260504034535 3 231 0.0 0.0 0.00 0.00 0.00 65 1011.8
20260504033037 3 231 0.0 1.6 0.00 0.00 0.00 66 1011.8
20260504031535 3 231 0.0 3.2 0.00 0.00 0.00 65 1011.7
20260504030034 4 232 0.0 3.2 0.00 0.00 0.00 64 1011.7
20260504024535 4 232 0.0 0.0 0.00 0.00 0.00 63 1011.6
20260504023031 5 232 0.0 0.0 0.00 0.00 0.00 63 1011.6
20260504021533 5 232 0.0 0.0 0.00 0.00 0.00 62 1011.4
20260504020031 5 232 0.0 0.0 0.00 0.00 0.00 61 1011.3
20260504014537 5 232 0.0 0.0 0.00 0.00 0.00 59 1011.3
20260504013027 6 232 0.0 0.0 0.00 0.00 0.00 58 1011.0
20260504011527 6 232 0.0 0.0 0.00 0.00 0.00 56 1010.9
20260504010026 6 232 0.0 0.0 0.00 0.00 0.00 56 1010.7
20260504004524 7 232 0.0 0.0 0.00 0.00 0.00 54 1010.4
20260504003030 8 232 0.0 0.0 0.00 0.00 0.00 52 1010.2
20260504001522 8 232 0.0 3.2 0.00 0.00 0.00 50 1010.0
20260504000021 9 241 0.0 6.4 0.00 0.00 0.00 49 1009.9
20260503234521 10 215 3.2 9.7 0.00 0.00 0.00 45 1009.7
20260503233020 10 198 1.6 12.9 0.00 0.00 0.00 43 1009.7
20260503231523 10 263 3.2 16.1 0.00 0.00 0.00 43 1009.7
20260503230019 10 243 6.4 17.7 0.00 0.00 0.00 43 1009.5
20260503224520 11 281 4.8 16.1 0.00 0.00 0.00 41 1009.3
20260503223019 11 242 1.6 22.5 0.00 0.00 0.00 42 1009.1
20260503221519 11 238 1.6 17.7 0.00 0.00 0.00 42 1009.1
20260503220024 11 347 3.2 16.1 0.00 0.00 0.00 41 1009.1
20260503214525 11 232 9.7 37.0 0.00 0.00 0.00 40 1009.2
20260503213017 11 149 8.0 20.9 0.00 0.00 0.00 43 1008.9